Погода в Казацком

Украина / Херсонская область     46°47′10″N   33°19′57″E
темп.,
°C
ветер,
м/с
пор.,
м/с
влажн.,
%
обл.,
%
осадки,
мм/ч
давл.,
гПа
погр.,
м
28 февраля, вс
вс2823:00+4сз5984100 0.0 1020519
02:00+3сз379098 0.1 1020292
05:00+3сз599188 0.1 1020553
08:00+3сз589094 0.1 1021529
11:00+4ссз6882100 0.1 1022761
14:00+5ссз688399 0.3 1022708
17:00+4сз578597 0.1 1023567
20:00+3зсз478197 0.2 1023358
1 марта, пн
пн123:00+2зсз3582100 0.0 1024173
02:000з238597 0.0 102343
05:000зсз228887 0.0 102421
08:00+2ссв128170 0.0 1025131
11:00+5св22610 0.0 1026947
14:00+6ссв235840 0.1 10271018
17:00+4ссв3475100 0.1 1028676
20:00+2ссв238194 0.1 1030126
2 марта, вт
вт223:00+3ссв256992 0.0 1031189
02:00+1ссз227594 0.0 103182
05:000зсз228984 0.0 103035
08:00+2з347789 0.0 1030198
11:00+6з465797 0.0 10291149
14:00+7зюз685791 0.0 10271068
17:00+6зюз7116647 0.0 1024677
20:00+4зюз6127724 0.0 1024342
3 марта, ср
ср323:00+4з511860 0.0 1023291
02:00+3зсз410920 0.0 1022262
05:00+4ссз498494 0.0 1023510
08:00+4ссз597697 0.0 1025946
11:00+7с795472 0.0 10261418
14:00+9ссз674840 0.0 10261535
17:00+7ссз365346 0.0 1026449
20:00+4ссз236323 0.0 102734
4 марта, чт
чт423:00+3с12690 0.0 102822
02:00+1ссв01740 0.0 102722
05:00+1ю12750 0.0 102622
08:00+3ююз24670 0.0 1026149
11:00+8юз56540 0.0 1024990
14:00+9юз67490 0.0 10221097
17:00+7юз69630 0.0 1020779
20:00+4ююз5128131 0.0 1019498